{"data":{"norad_id":48436,"epoch":"2026-09-19T22:55:00.448320Z","epoch_age_seconds":84281,"freshness":"FRESH","line1":"1 48436U 21040J   26262.95486630  .00000124  00000+0  15764-4 0  9994","line2":"2 48436  53.1605 354.0748 0000906  82.0323 278.0781 15.31700440296444","mean_motion":15.3170044,"eccentricity":9.06e-5,"inclination_deg":53.1605,"raan_deg":354.0748,"arg_perigee_deg":82.0323,"mean_anomaly_deg":278.0781,"bstar":1.5764e-5,"rev_number":29644,"period_min":94.013160954632,"perigee_km":470.11817547192,"apogee_km":471.35919174579,"semimajor_km":6848.8756836089,"source":"CELESTRAK","updated_at":"2026-09-20T09:00:39.124205Z"}}